DL8NDG-13 Weather Reports


Display with metric or nautical units.
time (UTC)temp
F
wind
direction
speed
MPH
gust
MPH
rain 1hr
in
rain 24hr
in
rain mn
in
humidity
%
barometer
mb
20260903143019 73 182 4.0 8.0 0.00 0.00 0.00 57 1018.8
20260903141519 73 360 6.0 12.0 0.00 0.00 0.00 56 1019.0
20260903140018 73 188 5.0 10.0 0.00 0.00 0.00 55 1019.0
20260903134517 74 211 6.0 13.0 0.00 0.00 0.00 55 1019.2
20260903133015 74 175 7.0 16.0 0.00 0.00 0.00 54 1019.2
20260903131516 74 360 7.0 15.0 0.00 0.00 0.00 55 1019.4
20260903130013 74 218 6.0 16.0 0.00 0.00 0.00 54 1019.3
20260903124511 74 178 5.0 13.0 0.00 0.00 0.00 55 1019.3
20260903123012 73 360 12.0 18.0 0.00 0.00 0.00 54 1019.2
20260903121522 73 227 5.0 12.0 0.00 0.00 0.00 54 1019.3
20260903120010 74 217 4.0 10.0 0.00 0.00 0.00 53 1019.4
20260903114508 74 202 8.0 12.0 0.00 0.00 0.00 53 1019.5
20260903113009 75 360 6.0 12.0 0.00 0.00 0.00 52 1019.7
20260903111505 74 360 5.0 12.0 0.00 0.00 0.00 55 1019.7
20260903110002 74 360 5.0 11.0 0.00 0.00 0.00 55 1019.9
20260903104558 73 220 5.0 10.0 0.00 0.00 0.00 55 1020.1
20260903103055 70 191 3.0 6.0 0.00 0.00 0.00 58 1020.2
20260903101553 70 228 5.0 11.0 0.00 0.00 0.00 57 1020.3
20260903100053 70 148 5.0 10.0 0.00 0.00 0.00 58 1020.5
20260903094552 70 203 5.0 12.0 0.00 0.00 0.00 56 1020.5
20260903093055 71 184 4.0 8.0 0.00 0.00 0.00 57 1020.2
20260903091548 70 248 6.0 10.0 0.00 0.00 0.00 59 1020.1
20260903090049 69 200 8.0 13.0 0.00 0.00 0.00 58 1020.2
20260903084544 69 183 4.0 11.0 0.00 0.00 0.00 60 1020.3
20260903083045 68 360 0.0 1.0 0.00 0.00 0.00 64 1020.3
20260903081537 67 187 0.0 0.0 0.00 0.00 0.00 66 1020.4
20260903080034 67 210 0.0 0.0 0.00 0.00 0.00 67 1020.1
20260903074528 65 169 0.0 0.0 0.00 0.00 0.00 72 1020.0
20260903073026 63 138 0.0 0.0 0.00 0.00 0.00 75 1020.3
20260903071528 61 126 0.0 0.0 0.00 0.00 0.00 80 1020.5
20260903070025 60 103 0.0 0.0 0.00 0.00 0.00 83 1020.6
20260903064523 58 248 0.0 0.0 0.00 0.00 0.00 84 1020.5
20260903063021 56 237 0.0 0.0 0.00 0.00 0.00 84 1020.6
20260903061533 56 244 0.0 0.0 0.00 0.00 0.00 83 1020.6
20260903060007 55 247 0.0 0.0 0.00 0.00 0.00 83 1020.9
20260903054511 54 248 0.0 0.0 0.00 0.00 0.00 84 1020.7
20260903053002 53 259 0.0 0.0 0.00 0.00 0.00 84 1020.3
20260903051601 52 259 0.0 0.0 0.00 0.00 0.00 85 1020.1
20260903050058 52 259 0.0 0.0 0.00 0.00 0.00 85 1019.9
20260903044558 53 260 0.0 0.0 0.00 0.00 0.00 85 1019.8
20260903043055 53 258 0.0 0.0 0.00 0.00 0.00 85 1019.9
20260903041608 53 259 0.0 0.0 0.00 0.00 0.00 85 1019.8
20260903040052 54 282 0.0 0.0 0.00 0.00 0.00 85 1019.9
20260903034549 54 280 0.0 0.0 0.00 0.00 0.00 85 1020.0
20260903033048 55 260 0.0 0.0 0.00 0.00 0.00 85 1019.9
20260903031547 55 259 0.0 0.0 0.00 0.00 0.00 85 1019.9
20260903030045 55 259 0.0 0.0 0.00 0.00 0.00 84 1019.9
20260903024545 56 260 0.0 0.0 0.00 0.00 0.00 84 1020.0
20260903023040 56 259 0.0 0.0 0.00 0.00 0.00 83 1020.0
20260903021539 57 258 0.0 0.0 0.00 0.00 0.00 82 1019.9
20260903020042 58 256 0.0 0.0 0.00 0.00 0.00 81 1019.8
20260903014545 58 259 0.0 0.0 0.00 0.00 0.00 80 1019.9
20260903013029 59 259 0.0 0.0 0.00 0.00 0.00 79 1020.0
20260903011528 59 283 0.0 0.0 0.00 0.00 0.00 78 1019.9
20260903010030 60 281 0.0 0.0 0.00 0.00 0.00 77 1020.0
20260903004524 60 280 0.0 0.0 0.00 0.00 0.00 77 1019.9
20260903003021 61 280 0.0 0.0 0.00 0.00 0.00 75 1019.9
20260903001519 62 261 0.0 0.0 0.00 0.00 0.00 73 1019.9
20260903000016 63 263 0.0 0.0 0.00 0.00 0.00 72 1019.8
20260902234518 63 261 0.0 0.0 0.00 0.00 0.00 71 1019.8
20260902233014 63 259 0.0 0.0 0.00 0.00 0.00 71 1020.0
20260902231515 63 256 0.0 0.0 0.00 0.00 0.00 71 1019.9
20260902230012 64 281 0.0 0.0 0.00 0.00 0.00 71 1019.9
20260902224511 64 281 0.0 0.0 0.00 0.00 0.00 72 1020.0
20260902223009 63 263 0.0 0.0 0.00 0.00 0.00 75 1019.9
20260902221518 63 261 0.0 0.0 0.00 0.00 0.00 78 1020.0
20260902220005 64 259 0.0 0.0 0.00 0.00 0.00 79 1019.9
20260902214509 64 259 0.0 0.0 0.00 0.00 0.00 78 1019.8
20260902213003 64 259 0.0 0.0 0.00 0.00 0.00 78 1019.8
20260902211503 64 281 0.0 0.0 0.00 0.00 0.00 77 1019.7
20260902210004 64 263 0.0 0.0 0.00 0.00 0.00 77 1019.7
20260902204501 64 259 0.0 0.0 0.00 0.00 0.00 76 1019.6
20260902203113 65 261 0.0 0.0 0.00 0.00 0.00 76 1019.6
20260902201603 65 259 0.0 0.0 0.00 0.00 0.00 75 1019.4
20260902200059 65 255 0.0 0.0 0.00 0.00 0.00 74 1019.4
20260902194602 65 281 0.0 0.0 0.00 0.00 0.00 73 1019.4
20260902193057 66 261 0.0 0.0 0.00 0.00 0.00 73 1019.2
20260902191557 66 260 0.0 0.0 0.00 0.00 0.00 72 1019.2
20260902190156 67 261 0.0 0.0 0.00 0.00 0.00 71 1019.2
20260902184554 68 258 0.0 0.0 0.00 0.00 0.00 69 1019.0
20260902183055 68 281 0.0 0.0 0.00 0.00 0.00 67 1018.9
20260902181556 69 261 0.0 0.0 0.00 0.00 0.00 65 1018.7
20260902180056 70 259 0.0 0.0 0.00 0.00 0.00 63 1018.5
20260902174552 71 258 0.0 0.0 0.00 0.00 0.00 62 1018.4
20260902173151 71 260 0.0 0.0 0.00 0.00 0.00 61 1018.5
20260902171552 72 282 0.0 0.0 0.00 0.00 0.00 59 1018.4
20260902170050 72 256 0.0 0.0 0.00 0.00 0.00 60 1018.3
20260902164552 72 249 0.0 0.0 0.00 0.00 0.00 58 1018.3
20260902163048 73 246 0.0 0.0 0.00 0.00 0.00 57 1018.4
20260902161548 73 269 0.0 0.0 0.00 0.00 0.00 56 1018.3
20260902154545 74 227 4.0 10.0 0.00 0.00 0.00 54 1018.3
20260902153047 75 221 0.0 0.0 0.00 0.00 0.00 51 1018.3
20260902151551 75 215 0.0 0.0 0.00 0.00 0.00 50 1018.4
20260902150043 76 215 0.0 0.0 0.00 0.00 0.00 50 1018.4
20260902144541 76 207 0.0 0.0 0.00 0.00 0.00 50 1018.4